STARLINK K

Last updated on June 19, 2020, 12:02 a.m. UTC

1 45739U 20038K   20170.66667824  .01779537  16884-2  33049-2 0  9995
2 45739  53.0007 272.2581 0098788  69.8500  16.7712 15.92183804  1972

Satellite is not in orbit.